CW3157 Weather Reports


time (UTC)temp
F
wind
direction
speed
knots
gust
knots
rain 1hr
in
rain 24hr
in
rain mn
in
humidity
%
barometer
mb
20260510115819 54 360 0.9 1.7 0.00 0.05 0.01 90 1012.4
20260510114819 53 360 0.0 1.7 0.00 0.05 0.01 90 1012.3
20260510114319 53 360 0.0 1.7 0.00 0.05 0.01 90 1012.1
20260510113819 52 360 0.0 0.9 0.00 0.05 0.01 90 1012.0
20260510113319 51 360 0.0 0.9 0.00 0.05 0.01 90 1011.9
20260510112819 51 360 0.0 0.9 0.00 0.05 0.01 90 1011.8
20260510111819 52 360 0.0 1.7 0.00 0.05 0.01 90 1011.6
20260510111249 51 360 0.0 0.9 0.00 0.05 0.01 90 1011.5
20260510110819 51 360 0.0 1.7 0.00 0.05 0.01 90 1011.4
20260510110319 51 360 0.0 1.7 0.00 0.05 0.01 90 1011.3
20260510105819 50 360 0.9 1.7 0.00 0.05 0.01 89 1011.3
20260510105249 50 360 0.0 0.0 0.00 0.05 0.01 90 1011.3
20260510104819 50 360 0.0 0.0 0.00 0.05 0.01 90 1011.1
20260510104319 50 360 0.0 0.0 0.00 0.05 0.01 89 1011.3
20260510103319 50 360 0.0 0.0 0.00 0.05 0.01 89 1011.5
20260510102819 50 360 0.0 0.0 0.00 0.05 0.01 89 1011.3
20260510102319 50 360 0.0 0.0 0.00 0.05 0.01 89 1011.5
20260510101249 50 360 0.0 0.9 0.00 0.05 0.01 89 1011.6
20260510095819 50 360 0.0 0.0 0.00 0.05 0.01 89 1011.4
20260510095318 50 360 0.0 0.0 0.00 0.05 0.01 89 1011.3
20260510094749 50 360 0.0 0.0 0.00 0.05 0.01 89 1011.2
20260510094319 50 360 0.0 0.0 0.00 0.05 0.01 89 1011.1
20260510093819 50 360 0.0 0.0 0.00 0.05 0.01 89 1010.9
20260510092818 50 360 0.0 0.0 0.00 0.05 0.01 89 1011.0
20260510092319 50 360 0.0 0.0 0.00 0.05 0.01 89 1011.0
20260510091818 50 360 0.0 0.0 0.00 0.05 0.01 89 1011.0
20260510091319 50 360 0.0 0.9 0.00 0.05 0.01 89 1010.9
20260510090819 50 360 0.0 0.9 0.00 0.05 0.01 89 1010.8
20260510090318 50 360 0.9 2.6 0.00 0.05 0.01 89 1011.0
20260510085818 50 360 0.0 2.6 0.00 0.05 0.01 89 1010.9
20260510085318 49 360 0.0 0.0 0.00 0.05 0.01 89 1010.8
20260510084748 49 360 0.0 1.7 0.00 0.05 0.01 89 1010.8
20260510084318 49 360 0.0 1.7 0.00 0.05 0.01 89 1010.9
20260510083818 49 360 1.7 1.7 0.00 0.05 0.01 89 1010.9
20260510083318 49 360 0.0 0.9 0.00 0.05 0.01 89 1011.0
20260510082818 50 360 0.0 0.9 0.00 0.05 0.01 89 1010.9
20260510082318 49 360 0.0 0.0 0.00 0.05 0.01 89 1010.8
20260510081818 50 360 0.0 0.0 0.00 0.05 0.01 89 1010.8
20260510080818 50 360 0.0 1.7 0.00 0.05 0.01 89 1010.9
20260510080318 50 360 0.0 1.7 0.00 0.05 0.01 89 1010.9
20260510075818 50 360 0.9 1.7 0.00 0.05 0.01 89 1010.9
20260510074818 50 360 0.9 7.0 0.00 0.05 0.01 89 1011.0
20260510073818 50 309 1.7 8.7 0.00 0.05 0.01 89 1011.0
20260510073248 50 63 1.7 8.7 0.00 0.05 0.01 89 1011.2
20260510072818 50 63 0.9 8.7 0.00 0.05 0.01 89 1010.9
20260510072248 50 257 2.6 9.6 0.00 0.05 0.01 90 1010.7
20260510071818 48 25 0.0 9.6 0.00 0.05 0.01 89 1010.9
20260510071248 47 360 0.0 0.0 0.00 0.05 0.01 89 1010.3
20260510070818 48 360 0.0 0.0 0.00 0.05 0.01 89 1010.3
20260510070248 47 360 0.0 0.0 0.00 0.05 0.01 89 1010.3
20260510065818 48 360 0.0 0.0 0.01 0.05 0.01 89 1010.3
20260510065318 48 360 0.0 0.0 0.01 0.05 0.01 89 1010.2
20260510064818 48 360 0.0 0.9 0.01 0.05 0.01 89 1010.2
20260510064318 48 360 0.0 0.9 0.01 0.05 0.01 89 1010.2
20260510063818 49 360 0.0 0.9 0.01 0.05 0.01 89 1010.4
20260510063248 49 360 0.9 0.9 0.01 0.05 0.01 89 1010.4
20260510061818 51 360 0.0 6.1 0.01 0.05 0.01 89 1010.7
20260510061318 51 360 0.0 6.1 0.01 0.05 0.01 89 1010.8
20260510060748 51 28 0.9 4.3 0.01 0.05 0.01 89 1010.8
20260510060317 51 117 0.0 0.9 0.01 0.05 0.01 89 1010.6
20260510055818 51 117 0.0 2.6 0.00 0.04 0.00 89 1010.6
20260510055317 51 117 0.0 2.6 0.00 0.04 0.00 89 1010.4
20260510054317 51 117 0.9 2.6 0.00 0.04 0.00 89 1010.3
20260510053817 51 117 0.9 2.6 0.00 0.04 0.00 89 1010.3
20260510053247 51 117 0.9 2.6 0.00 0.04 0.00 89 1010.4
20260510052818 51 117 0.0 2.6 0.00 0.04 0.00 89 1010.4
20260510052247 51 117 0.0 1.7 0.00 0.04 0.00 89 1010.4
20260510051817 51 117 0.0 1.7 0.00 0.04 0.00 89 1010.5
20260510051317 51 117 0.0 1.7 0.00 0.04 0.00 89 1010.4
20260510050747 50 117 0.0 0.0 0.00 0.04 0.00 89 1010.4
20260510050317 50 117 0.0 0.0 0.00 0.04 0.00 89 1010.4
20260510045817 49 117 0.0 0.0 0.00 0.04 0.00 89 1010.4
20260510045317 49 117 0.0 0.0 0.00 0.04 0.00 89 1010.4
20260510044317 49 117 0.0 0.0 0.00 0.04 0.00 89 1010.4
20260510043817 49 117 0.0 0.0 0.00 0.04 0.00 89 1010.5
20260510043247 48 117 0.0 0.0 0.00 0.04 0.00 89 1010.4
20260510042817 48 117 0.0 0.0 0.00 0.04 0.00 88 1010.4
20260510042317 49 117 0.0 0.0 0.00 0.04 0.00 88 1010.5
20260510041817 48 117 0.0 0.0 0.00 0.04 0.00 88 1010.4
20260510041317 49 117 0.0 0.0 0.00 0.04 0.00 88 1010.6
20260510040817 48 117 0.0 0.0 0.00 0.04 0.00 88 1010.5
20260510040247 49 117 0.0 0.0 0.00 0.04 0.00 88 1010.7
20260510035817 49 117 0.0 0.0 0.00 0.04 0.00 88 1010.6
20260510035317 49 117 0.0 0.0 0.00 0.04 0.04 88 1010.6
20260510034817 49 117 0.0 0.0 0.00 0.04 0.04 88 1010.6
20260510034317 50 117 0.0 0.0 0.00 0.04 0.04 88 1010.6
20260510033817 50 117 0.0 0.0 0.00 0.04 0.04 88 1010.6
20260510032317 50 117 0.0 0.0 0.00 0.04 0.04 88 1010.6
20260510031817 50 117 0.0 0.0 0.00 0.04 0.04 88 1010.5
20260510031317 50 117 0.0 0.0 0.00 0.04 0.04 88 1010.4
20260510030817 50 117 0.0 0.0 0.00 0.04 0.04 88 1010.4
20260510030317 50 117 0.0 0.0 0.00 0.04 0.04 88 1010.4
20260510025817 50 117 0.0 0.0 0.00 0.04 0.04 88 1010.4
20260510025317 50 117 0.0 0.0 0.00 0.04 0.04 88 1010.4
20260510023816 50 117 0.0 0.9 0.00 0.04 0.04 88 1010.4
20260510023317 50 117 0.0 0.0 0.00 0.04 0.04 88 1010.4
20260510022816 50 117 0.0 0.0 0.00 0.04 0.04 88 1010.3
20260510022317 49 117 0.0 0.0 0.00 0.04 0.04 88 1010.2
20260510021817 49 117 0.0 0.0 0.00 0.04 0.04 87 1010.2
20260510021317 50 117 0.0 0.9 0.00 0.04 0.04 88 1010.2
20260510020817 50 117 0.0 0.9 0.00 0.04 0.04 87 1010.1
20260510020317 50 117 0.0 0.0 0.00 0.04 0.04 87 1010.1
20260510015316 51 117 0.0 1.7 0.00 0.04 0.04 87 1010.1
20260510014316 52 117 0.9 0.9 0.00 0.04 0.04 87 1010.2
20260510013816 52 117 0.0 0.9 0.00 0.04 0.04 87 1010.1
20260510013316 53 117 0.0 1.7 0.00 0.04 0.04 87 1010.1
20260510012817 53 117 0.0 1.7 0.00 0.04 0.04 87 1010.1
20260510012316 54 117 1.7 2.6 0.00 0.04 0.04 87 1010.1
20260510011816 54 117 0.9 2.6 0.00 0.04 0.04 87 1010.0
20260510011316 54 117 1.7 3.5 0.00 0.04 0.04 87 1010.0
20260510010816 54 117 0.9 3.5 0.00 0.04 0.04 87 1009.9
20260510010317 54 117 0.0 3.5 0.00 0.04 0.04 87 1009.9
20260510005817 54 117 0.9 3.5 0.00 0.04 0.04 87 1009.9
20260510005316 54 101 0.9 2.6 0.00 0.04 0.04 87 1009.9
20260510004316 54 101 0.0 2.6 0.00 0.04 0.04 87 1009.7
20260510003816 54 101 0.0 2.6 0.00 0.04 0.04 87 1009.5
20260510003316 54 101 1.7 1.7 0.00 0.04 0.04 87 1009.5
20260510002816 54 101 0.0 1.7 0.00 0.04 0.04 87 1009.6
20260510002316 54 101 0.0 2.6 0.00 0.04 0.04 87 1009.5
20260510001316 53 5 0.0 1.7 0.00 0.04 0.04 87 1009.4
20260510000816 53 5 0.0 1.7 0.00 0.04 0.04 86 1009.4
20260510000318 53 5 0.0 0.0 0.00 0.04 0.04 86 1009.3
20260509235816 53 5 0.0 0.0 0.00 0.04 0.04 86 1009.3
20260509235316 53 5 0.0 1.7 0.00 0.04 0.04 86 1009.2
20260509234816 54 5 0.0 2.6 0.00 0.04 0.04 85 1009.2
20260509234316 54 5 0.0 2.6 0.00 0.04 0.04 86 1009.3
20260509233816 54 5 0.0 0.9 0.00 0.04 0.04 85 1009.3
20260509233316 54 5 0.0 1.7 0.00 0.04 0.04 85 1009.3
20260509232816 54 5 0.0 1.7 0.00 0.04 0.04 85 1009.3
20260509232316 55 5 0.0 0.0 0.00 0.04 0.04 84 1009.3
20260509231816 55 5 0.0 0.9 0.00 0.04 0.04 84 1009.4
20260509231316 56 5 0.0 0.9 0.00 0.04 0.04 83 1009.4
20260509230816 56 5 0.0 1.7 0.00 0.04 0.04 83 1009.4
20260509230316 56 5 0.9 1.7 0.00 0.04 0.04 83 1009.4
20260509225816 56 5 0.0 1.7 0.00 0.04 0.04 82 1009.3
20260509225316 57 5 0.0 1.7 0.00 0.04 0.04 80 1009.2
20260509224816 57 5 0.0 1.7 0.00 0.04 0.04 81 1009.2
20260509224316 58 5 0.9 1.7 0.00 0.04 0.04 79 1009.1
20260509223816 58 5 0.0 1.7 0.00 0.04 0.04 78 1009.1
20260509223316 58 5 1.7 1.7 0.00 0.04 0.04 77 1009.1
20260509222316 58 5 0.0 2.6 0.00 0.04 0.04 79 1009.2
20260509221815 58 5 0.9 5.2 0.00 0.04 0.04 79 1009.2
20260509221316 58 5 1.7 5.2 0.00 0.04 0.04 79 1009.2
20260509220316 59 360 3.5 5.2 0.00 0.04 0.04 80 1009.2
20260509215316 58 276 5.2 5.2 0.00 0.04 0.04 80 1009.3
20260509214816 58 276 1.7 1.7 0.00 0.04 0.04 80 1009.2
20260509213816 58 276 0.0 0.0 0.00 0.04 0.04 82 1009.1
20260509213316 58 276 0.0 0.0 0.00 0.04 0.04 82 1009.1
20260509212815 57 276 0.0 0.0 0.00 0.04 0.04 81 1009.0
20260509212316 57 276 0.0 1.7 0.00 0.04 0.04 80 1009.1
20260509211816 57 276 0.0 1.7 0.00 0.04 0.04 81 1009.3
20260509211315 57 276 0.0 1.7 0.00 0.04 0.04 82 1009.4
20260509210815 57 247 0.0 4.3 0.00 0.04 0.04 81 1009.3
20260509210316 57 247 1.7 4.3 0.00 0.04 0.04 79 1009.4
20260509205817 57 327 0.9 6.1 0.00 0.04 0.04 79 1009.5
20260509205315 57 327 1.7 6.1 0.00 0.04 0.04 79 1009.5
20260509204815 58 237 2.6 7.8 0.00 0.04 0.04 79 1009.6
20260509204315 58 360 4.3 7.8 0.00 0.04 0.04 78 1009.7
20260509203815 59 9 7.8 7.8 0.00 0.04 0.04 78 1009.6
20260509202815 60 9 0.0 7.0 0.00 0.04 0.04 79 1009.8
20260509202315 59 9 3.5 7.0 0.00 0.04 0.04 79 1009.6
20260509201815 60 308 0.9 4.3 0.00 0.04 0.04 80 1009.7
20260509201315 60 308 0.9 3.5 0.00 0.04 0.04 80 1009.7
20260509200815 59 308 0.0 3.5 0.00 0.04 0.04 78 1009.6
20260509195815 58 217 1.7 1.7 0.00 0.04 0.04 80 1009.7
20260509195315 58 217 0.0 1.7 0.00 0.04 0.04 82 1009.8
20260509194815 57 217 0.9 1.7 0.00 0.04 0.04 80 1009.8
20260509194315 57 217 0.0 0.9 0.00 0.04 0.04 80 1009.9
20260509193815 57 217 0.0 1.7 0.00 0.04 0.04 79 1009.9
20260509193315 56 217 0.0 1.7 0.00 0.04 0.04 81 1010.0
20260509192815 56 217 0.9 4.3 0.00 0.04 0.04 82 1010.0
20260509192315 56 217 0.0 4.3 0.00 0.04 0.04 80 1010.0
20260509190815 56 335 1.7 2.6 0.00 0.04 0.04 84 1010.4
20260509190315 55 335 0.9 1.7 0.00 0.04 0.04 84 1010.5
20260509185315 55 335 0.9 2.6 0.01 0.04 0.04 85 1010.6
20260509184815 55 335 0.0 2.6 0.01 0.04 0.04 85 1010.6
20260509183815 55 335 0.9 2.6 0.01 0.04 0.04 85 1010.9
20260509183315 55 335 0.9 1.7 0.01 0.04 0.04 84 1010.9
20260509182815 55 335 0.0 2.6 0.01 0.04 0.04 84 1011.0
20260509182315 55 335 0.0 4.3 0.01 0.04 0.04 84 1011.0
20260509181815 55 335 2.6 4.3 0.01 0.04 0.04 84 1010.9
20260509181315 55 273 1.7 3.5 0.01 0.04 0.04 84 1010.9
20260509180815 55 267 0.9 2.6 0.01 0.04 0.04 84 1011.0
20260509180315 55 267 0.9 2.6 0.01 0.04 0.04 84 1011.0
20260509175815 55 267 0.0 2.6 0.00 0.03 0.03 84 1011.0
20260509175314 55 267 0.0 1.7 0.00 0.03 0.03 84 1011.0
20260509174815 55 267 0.0 2.6 0.00 0.03 0.03 83 1011.0
20260509174315 55 267 1.7 5.2 0.00 0.03 0.03 82 1011.0
20260509173815 55 267 0.9 5.2 0.01 0.03 0.03 82 1011.0
20260509173315 55 327 2.6 5.2 0.01 0.03 0.03 82 1010.9
20260509172815 56 344 0.0 4.3 0.01 0.03 0.03 83 1011.1
20260509172315 56 222 0.0 2.6 0.01 0.03 0.03 84 1011.1
20260509171315 56 222 1.7 3.5 0.01 0.03 0.03 84 1011.1
20260509170815 55 222 1.7 4.3 0.02 0.03 0.03 83 1011.1
20260509165814 55 224 0.9 3.5 0.03 0.03 0.03 84 1010.8
20260509165315 55 224 2.6 3.5 0.03 0.03 0.03 83 1010.5
20260509164814 55 322 2.6 4.3 0.03 0.03 0.03 83 1010.4
20260509164314 55 322 0.9 4.3 0.03 0.03 0.03 84 1010.3
20260509163814 55 286 0.0 5.2 0.02 0.02 0.02 84 1010.4
20260509163314 55 302 0.0 5.2 0.02 0.02 0.02 84 1010.6
20260509162814 55 283 2.6 6.1 0.02 0.02 0.02 83 1010.7
20260509162314 55 355 0.0 6.1 0.02 0.02 0.02 83 1010.7
20260509161814 56 311 1.7 3.5 0.02 0.02 0.02 83 1011.0
20260509161314 56 312 1.7 4.3 0.02 0.02 0.02 82 1011.1
20260509160314 56 288 0.9 4.3 0.01 0.01 0.01 82 1011.4
20260509155814 57 298 2.6 7.0 0.00 0.00 0.00 83 1011.5
20260509154314 57 275 2.6 6.1 0.00 0.00 0.00 81 1011.6
20260509153814 57 267 0.9 6.1 0.00 0.00 0.00 81 1011.6
20260509153314 58 291 0.0 3.5 0.00 0.00 0.00 79 1011.7
20260509152814 57 251 0.9 3.5 0.00 0.00 0.00 79 1011.6
20260509152314 57 235 0.0 3.5 0.00 0.00 0.00 78 1011.6
20260509150314 57 226 1.7 4.3 0.00 0.00 0.00 78 1011.5
20260509145814 56 175 3.5 4.3 0.00 0.00 0.00 78 1011.5
20260509144314 56 152 0.9 1.7 0.00 0.00 0.00 77 1011.4
20260509143814 56 152 0.0 1.7 0.00 0.00 0.00 78 1011.3
20260509143314 56 172 0.0 2.6 0.00 0.00 0.00 77 1011.2
20260509142814 56 172 0.0 2.6 0.00 0.00 0.00 78 1011.3
20260509142314 56 172 0.0 1.7 0.00 0.00 0.00 78 1011.2
20260509141314 56 172 0.9 2.6 0.00 0.00 0.00 78 1011.2
20260509140314 56 172 0.9 5.2 0.00 0.00 0.00 78 1011.1
20260509134813 56 194 0.9 2.6 0.00 0.00 0.00 77 1011.1
20260509134314 56 194 0.9 2.6 0.00 0.00 0.00 78 1011.0
20260509133814 56 253 0.9 6.1 0.00 0.00 0.00 77 1011.1
20260509133314 55 253 1.7 6.1 0.00 0.00 0.00 77 1010.9
20260509132813 56 171 1.7 5.2 0.00 0.00 0.00 79 1011.1
20260509131814 55 161 1.7 3.5 0.00 0.00 0.00 77 1010.9
20260509131313 55 160 0.0 1.7 0.00 0.00 0.00 78 1010.9
20260509130813 55 161 0.0 3.5 0.00 0.00 0.00 77 1011.0
20260509130313 55 161 0.0 3.5 0.00 0.00 0.00 78 1010.9
20260509125813 55 161 0.9 3.5 0.00 0.00 0.00 77 1010.9
20260509125313 55 161 1.7 3.5 0.00 0.00 0.00 78 1011.0
20260509124813 55 193 0.9 2.6 0.00 0.00 0.00 78 1011.0
20260509123813 54 194 0.0 2.6 0.00 0.00 0.00 79 1011.0
20260509123313 54 140 0.9 2.6 0.00 0.00 0.00 79 1010.9
20260509122813 54 121 0.0 1.7 0.00 0.00 0.00 79 1010.9
20260509121813 54 121 1.7 2.6 0.00 0.00 0.00 79 1010.9
20260509120813 53 121 0.0 1.7 0.00 0.00 0.00 79 1011.1